Kezdőlap
METAR-TAF:

METAR-TAF

Repülőterek :

Hannibal, Missouri, Amerikai Egyesült Államok

földrajzi szélesség: 39-43-31N, földrajzi hosszúság: 091-26-38W, magasság: 234 m

Jelenlegi meteorológiai megfigyelések

A jelentés 14 perccel ezelõtt készült, 12:55 UTC
Déli szél 3 kt
Hőmérséklet 23°C
Páratartalom 89%
Légköri nyomás 1019 hPa
Látótávolság: 16.1 km
Derült ég

METAR: KHAE 281255Z AUTO 18003KT 10SM CLR 23/21 A3008 RMK AO2

Idő: 08:09 (13:09 UTC)


TAF: hiányzik

Meteorológiai megfigyelések és előrejelzések több, mint 4000 repülőtéren (METAR és TAF jelentéseket).

A térképen piros és sárga pontok jelzik az elérhető meteorológiai állomásokat.

Mozgassa az egeret a pont fölött, hogy megjelenjen az állomás neve.

Azután kattintson az időjárási megfigyelések és előrejelzések megtekintéséhez.

A térkép megváltoztatása: kattintson a fekete keresztel jelölt zöld gombra ráközelítéshez, a vonallal jelölt zöld gombra távolításhoz, vagy a zöld nyilakra a szomszédos térképek eléréséhez.


METAR-TAF: